Year,Month,Day,Hour,Minute,Value (Times are PST for temperature in C)
2007,06,22,00,00,11.40
2007,06,22,00,01,11.40
2007,06,22,00,02,11.40
2007,06,22,00,03,11.40
2007,06,22,00,04,11.40
2007,06,22,00,05,11.40
2007,06,22,00,06,11.40
2007,06,22,00,07,11.40
2007,06,22,00,08,11.40
2007,06,22,00,09,11.40
2007,06,22,00,10,11.40
2007,06,22,00,11,11.40
2007,06,22,00,12,11.40
2007,06,22,00,13,11.40
2007,06,22,00,14,11.40
2007,06,22,00,15,11.40
2007,06,22,00,16,11.40
2007,06,22,00,17,11.50
2007,06,22,00,18,11.50
2007,06,22,00,19,11.50
2007,06,22,00,20,11.40
2007,06,22,00,21,11.40
2007,06,22,00,22,11.40
2007,06,22,00,23,11.40
2007,06,22,00,24,11.40
2007,06,22,00,25,11.40
2007,06,22,00,26,11.40
2007,06,22,00,27,11.40
2007,06,22,00,28,11.40
2007,06,22,00,29,11.40
2007,06,22,00,30,11.40
2007,06,22,00,31,11.40
2007,06,22,00,32,11.40
2007,06,22,00,33,11.40
2007,06,22,00,34,11.40
2007,06,22,00,35,11.40
2007,06,22,00,36,11.40
2007,06,22,00,37,11.40
2007,06,22,00,38,11.40
2007,06,22,00,39,11.40
2007,06,22,00,40,11.40
2007,06,22,00,41,11.40
2007,06,22,00,42,11.40
2007,06,22,00,43,11.40
2007,06,22,00,44,11.40
2007,06,22,00,45,11.40
2007,06,22,00,46,11.40
2007,06,22,00,47,11.40
2007,06,22,00,48,11.40
2007,06,22,00,49,11.40
2007,06,22,00,50,11.40
2007,06,22,00,51,11.40
2007,06,22,00,52,11.40
2007,06,22,00,53,11.40
2007,06,22,00,54,11.40
2007,06,22,00,55,11.40
2007,06,22,00,56,11.50
2007,06,22,00,57,11.60
2007,06,22,00,58,11.60
2007,06,22,00,59,11.60
2007,06,22,01,00,11.60
2007,06,22,01,01,11.60
2007,06,22,01,02,11.60
2007,06,22,01,03,11.60
2007,06,22,01,04,11.60
2007,06,22,01,05,11.60
2007,06,22,01,06,11.60
2007,06,22,01,07,11.60
2007,06,22,01,08,11.60
2007,06,22,01,09,11.60
2007,06,22,01,10,11.60
2007,06,22,01,11,11.60
2007,06,22,01,12,11.60
2007,06,22,01,13,11.60
2007,06,22,01,14,11.60
2007,06,22,01,15,11.60
2007,06,22,01,16,11.60
2007,06,22,01,17,11.60
2007,06,22,01,18,11.60
2007,06,22,01,19,11.60
2007,06,22,01,20,11.60
2007,06,22,01,21,11.60
2007,06,22,01,22,11.60
2007,06,22,01,23,11.60
2007,06,22,01,24,11.60
2007,06,22,01,25,11.60
2007,06,22,01,26,11.60
2007,06,22,01,27,11.60
2007,06,22,01,28,11.60
2007,06,22,01,29,11.60
2007,06,22,01,30,11.60
2007,06,22,01,31,11.50
2007,06,22,01,32,11.40
2007,06,22,01,33,11.40
2007,06,22,01,34,11.40
2007,06,22,01,35,11.40
2007,06,22,01,36,11.40
2007,06,22,01,37,11.40
2007,06,22,01,38,11.40
2007,06,22,01,39,11.40
2007,06,22,01,40,11.40
2007,06,22,01,41,11.40
2007,06,22,01,42,11.40
2007,06,22,01,43,11.40
2007,06,22,01,44,11.40
2007,06,22,01,45,11.40
2007,06,22,01,46,11.40
2007,06,22,01,47,11.30
2007,06,22,01,48,11.30
2007,06,22,01,49,11.30
2007,06,22,01,50,11.30
2007,06,22,01,51,11.20
2007,06,22,01,52,11.20
2007,06,22,01,53,11.20
2007,06,22,01,54,11.20
2007,06,22,01,55,11.10
2007,06,22,01,56,11.10
2007,06,22,01,57,11.10
2007,06,22,01,58,11.10
2007,06,22,01,59,11.10
2007,06,22,02,00,11.10
2007,06,22,02,01,11.10
2007,06,22,02,02,11.10
2007,06,22,02,03,11.10
2007,06,22,02,04,11.10
2007,06,22,02,05,11.10
2007,06,22,02,06,11.10
2007,06,22,02,07,11.10
2007,06,22,02,08,11.10
2007,06,22,02,09,11.10
2007,06,22,02,10,11.10
2007,06,22,02,11,11.00
2007,06,22,02,12,10.90
2007,06,22,02,13,10.90
2007,06,22,02,14,10.90
2007,06,22,02,15,10.90
2007,06,22,02,16,10.90
2007,06,22,02,17,10.90
2007,06,22,02,18,10.90
2007,06,22,02,19,10.90
2007,06,22,02,20,10.90
2007,06,22,02,21,10.90
2007,06,22,02,22,10.90
2007,06,22,02,23,10.90
2007,06,22,02,24,11.10
2007,06,22,02,25,11.10
2007,06,22,02,26,11.10
2007,06,22,02,27,11.10
2007,06,22,02,28,11.10
2007,06,22,02,29,11.10
2007,06,22,02,30,11.10
2007,06,22,02,31,11.10
2007,06,22,02,32,11.10
2007,06,22,02,33,11.10
2007,06,22,02,34,11.10
2007,06,22,02,35,10.90
2007,06,22,02,36,10.90
2007,06,22,02,37,10.90
2007,06,22,02,38,10.90
2007,06,22,02,39,10.90
2007,06,22,02,40,10.90
2007,06,22,02,41,10.90
2007,06,22,02,42,10.90
2007,06,22,02,43,10.90
2007,06,22,02,44,10.90
2007,06,22,02,45,10.90
2007,06,22,02,46,10.90
2007,06,22,02,47,10.90
2007,06,22,02,48,10.90
2007,06,22,02,49,10.90
2007,06,22,02,50,10.90
2007,06,22,02,51,10.90
2007,06,22,02,52,10.90
2007,06,22,02,53,10.90
2007,06,22,02,54,10.90
2007,06,22,02,55,10.90
2007,06,22,02,56,10.90
2007,06,22,02,57,10.90
2007,06,22,02,58,10.90
2007,06,22,02,59,10.90
2007,06,22,03,00,10.90
2007,06,22,03,01,10.90
2007,06,22,03,02,10.90
2007,06,22,03,03,10.80
2007,06,22,03,04,10.80
2007,06,22,03,05,10.80
2007,06,22,03,06,10.80
2007,06,22,03,07,10.80
2007,06,22,03,08,10.80
2007,06,22,03,09,10.80
2007,06,22,03,10,10.80
2007,06,22,03,11,10.80
2007,06,22,03,12,10.80
2007,06,22,03,13,10.80
2007,06,22,03,14,10.80
2007,06,22,03,15,10.70
2007,06,22,03,16,10.70
2007,06,22,03,17,10.70
2007,06,22,03,18,10.70
2007,06,22,03,19,10.70
2007,06,22,03,20,10.70
2007,06,22,03,21,10.60
2007,06,22,03,22,10.60
2007,06,22,03,23,10.60
2007,06,22,03,24,10.60
2007,06,22,03,25,10.60
2007,06,22,03,26,10.60
2007,06,22,03,27,10.60
2007,06,22,03,28,10.60
2007,06,22,03,29,10.60
2007,06,22,03,30,10.60
2007,06,22,03,31,10.60
2007,06,22,03,32,10.40
2007,06,22,03,33,10.40
2007,06,22,03,34,10.40
2007,06,22,03,35,10.40
2007,06,22,03,36,10.40
2007,06,22,03,37,10.40
2007,06,22,03,38,10.40
2007,06,22,03,39,10.40
2007,06,22,03,40,10.40
2007,06,22,03,41,10.40
2007,06,22,03,42,10.40
2007,06,22,03,43,10.40
2007,06,22,03,44,10.40
2007,06,22,03,45,10.40
2007,06,22,03,46,10.40
2007,06,22,03,47,10.40
2007,06,22,03,48,10.40
2007,06,22,03,49,10.40
2007,06,22,03,50,10.40
2007,06,22,03,51,10.40
2007,06,22,03,52,10.30
2007,06,22,03,53,10.30
2007,06,22,03,54,10.30
2007,06,22,03,55,10.30
2007,06,22,03,56,10.30
2007,06,22,03,57,10.30
2007,06,22,03,58,10.30
2007,06,22,03,59,10.30
2007,06,22,04,00,10.20
2007,06,22,04,01,10.20
2007,06,22,04,02,10.20
2007,06,22,04,03,10.20
2007,06,22,04,04,10.20
2007,06,22,04,05,10.20
2007,06,22,04,06,10.10
2007,06,22,04,07,10.10
2007,06,22,04,08,10.10
2007,06,22,04,09,10.10
2007,06,22,04,10,10.10
2007,06,22,04,11,10.10
2007,06,22,04,12,10.10
2007,06,22,04,13,9.90
2007,06,22,04,14,9.90
2007,06,22,04,15,9.90
2007,06,22,04,16,9.80
2007,06,22,04,17,9.80
2007,06,22,04,18,9.80
2007,06,22,04,19,9.80
2007,06,22,04,20,9.80
2007,06,22,04,21,9.90
2007,06,22,04,22,9.90
2007,06,22,04,23,9.90
2007,06,22,04,24,9.90
2007,06,22,04,25,9.90
2007,06,22,04,26,10.00
2007,06,22,04,27,10.10
2007,06,22,04,28,10.10
2007,06,22,04,29,10.10
2007,06,22,04,30,10.10
2007,06,22,04,31,10.10
2007,06,22,04,32,10.10
2007,06,22,04,33,10.10
2007,06,22,04,34,9.90
2007,06,22,04,35,9.90
2007,06,22,04,36,9.90
2007,06,22,04,37,9.90
2007,06,22,04,38,9.90
2007,06,22,04,39,9.80
2007,06,22,04,40,9.90
2007,06,22,04,41,9.90
2007,06,22,04,42,9.90
2007,06,22,04,43,9.90
2007,06,22,04,44,9.90
2007,06,22,04,45,9.90
2007,06,22,04,46,9.90
2007,06,22,04,47,9.90
2007,06,22,04,48,9.90
2007,06,22,04,49,9.90
2007,06,22,04,50,9.90
2007,06,22,04,51,9.90
2007,06,22,04,52,9.90
2007,06,22,04,53,9.90
2007,06,22,04,54,9.90
2007,06,22,04,55,9.90
2007,06,22,04,56,9.90
2007,06,22,04,57,9.80
2007,06,22,04,58,9.80
2007,06,22,04,59,9.80
2007,06,22,05,00,9.70
2007,06,22,05,01,9.70
2007,06,22,05,02,9.70
2007,06,22,05,03,9.70
2007,06,22,05,04,9.80
2007,06,22,05,05,9.80
2007,06,22,05,06,9.90
2007,06,22,05,07,9.90
2007,06,22,05,08,9.90
2007,06,22,05,09,9.90
2007,06,22,05,10,9.80
2007,06,22,05,11,9.80
2007,06,22,05,12,9.70
2007,06,22,05,13,9.70
2007,06,22,05,14,9.70
2007,06,22,05,15,9.70
2007,06,22,05,16,9.70
2007,06,22,05,17,9.70
2007,06,22,05,18,9.60
2007,06,22,05,19,9.60
2007,06,22,05,20,9.60
2007,06,22,05,21,9.50
2007,06,22,05,22,9.50
2007,06,22,05,23,9.40
2007,06,22,05,24,9.40
2007,06,22,05,25,9.30
2007,06,22,05,26,9.30
2007,06,22,05,27,9.30
2007,06,22,05,28,9.30
2007,06,22,05,29,9.30
2007,06,22,05,30,9.30
2007,06,22,05,31,9.30
2007,06,22,05,32,9.30
2007,06,22,05,33,9.30
2007,06,22,05,34,9.30
2007,06,22,05,35,9.30
2007,06,22,05,36,9.30
2007,06,22,05,37,9.30
2007,06,22,05,38,9.30
2007,06,22,05,39,9.40
2007,06,22,05,40,9.40
2007,06,22,05,41,9.40
2007,06,22,05,42,9.50
2007,06,22,05,43,9.60
2007,06,22,05,44,9.70
2007,06,22,05,45,9.70
2007,06,22,05,46,9.70
2007,06,22,05,47,9.70
2007,06,22,05,48,9.70
2007,06,22,05,49,9.70
2007,06,22,05,50,9.70
2007,06,22,05,51,9.70
2007,06,22,05,52,9.70
2007,06,22,05,53,9.70
2007,06,22,05,54,9.70
2007,06,22,05,55,9.70
2007,06,22,05,56,9.70
2007,06,22,05,57,9.60
2007,06,22,05,58,9.50
2007,06,22,05,59,9.50
2007,06,22,06,00,9.50
2007,06,22,06,01,9.50
2007,06,22,06,02,9.60
2007,06,22,06,03,9.60
2007,06,22,06,04,9.60
2007,06,22,06,05,9.70
2007,06,22,06,06,9.60
2007,06,22,06,07,9.60
2007,06,22,06,08,9.60
2007,06,22,06,09,9.70
2007,06,22,06,10,9.80
2007,06,22,06,11,9.90
2007,06,22,06,12,9.90
2007,06,22,06,13,9.90
2007,06,22,06,14,10.10
2007,06,22,06,15,10.10
2007,06,22,06,16,10.10
2007,06,22,06,17,10.10
2007,06,22,06,18,10.10
2007,06,22,06,19,10.10
2007,06,22,06,20,10.10
2007,06,22,06,21,10.20
2007,06,22,06,22,10.20
2007,06,22,06,23,10.20
2007,06,22,06,24,10.10
2007,06,22,06,25,10.10
2007,06,22,06,26,9.90
2007,06,22,06,27,9.90
2007,06,22,06,28,9.90
2007,06,22,06,29,9.90
2007,06,22,06,30,9.90
2007,06,22,06,31,9.90
2007,06,22,06,32,9.90
2007,06,22,06,33,9.80
2007,06,22,06,34,9.80
2007,06,22,06,35,9.80
2007,06,22,06,36,9.70
2007,06,22,06,37,9.70
2007,06,22,06,38,9.70
2007,06,22,06,39,9.70
2007,06,22,06,40,9.70
2007,06,22,06,41,9.70
2007,06,22,06,42,9.70
2007,06,22,06,43,9.70
2007,06,22,06,44,9.70
2007,06,22,06,45,9.70
2007,06,22,06,46,9.70
2007,06,22,06,47,9.70
2007,06,22,06,48,9.60
2007,06,22,06,49,9.60
2007,06,22,06,50,9.70
2007,06,22,06,51,9.70
2007,06,22,06,52,9.70
2007,06,22,06,53,9.70
2007,06,22,06,54,9.70
2007,06,22,06,55,9.70
2007,06,22,06,56,9.70
2007,06,22,06,57,9.70
2007,06,22,06,58,9.70
2007,06,22,06,59,9.70
2007,06,22,07,00,9.70
2007,06,22,07,01,9.70
2007,06,22,07,02,9.80
2007,06,22,07,03,9.80
2007,06,22,07,04,9.80
2007,06,22,07,05,9.80
2007,06,22,07,06,9.80
2007,06,22,07,07,9.80
2007,06,22,07,08,9.80
2007,06,22,07,09,9.80
2007,06,22,07,10,9.70
2007,06,22,07,11,9.70
2007,06,22,07,12,9.70
2007,06,22,07,13,9.70
2007,06,22,07,14,9.80
2007,06,22,07,15,9.70
2007,06,22,07,16,9.70
2007,06,22,07,17,9.70
2007,06,22,07,18,9.80
2007,06,22,07,19,9.80
2007,06,22,07,20,9.80
2007,06,22,07,21,9.80
2007,06,22,07,22,9.90
2007,06,22,07,23,9.90
2007,06,22,07,24,9.90
2007,06,22,07,25,9.90
2007,06,22,07,26,9.90
2007,06,22,07,27,9.90
2007,06,22,07,28,9.90
2007,06,22,07,29,9.90
2007,06,22,07,30,10.00
2007,06,22,07,31,10.00
2007,06,22,07,32,10.00
2007,06,22,07,33,10.10
2007,06,22,07,34,10.10
2007,06,22,07,35,10.20
2007,06,22,07,36,10.30
2007,06,22,07,37,10.40
2007,06,22,07,38,10.40
2007,06,22,07,39,10.40
2007,06,22,07,40,10.40
2007,06,22,07,41,10.40
2007,06,22,07,42,10.40
2007,06,22,07,43,10.60
2007,06,22,07,44,10.60
2007,06,22,07,45,10.60
2007,06,22,07,46,10.60
2007,06,22,07,47,10.70
2007,06,22,07,48,10.70
2007,06,22,07,49,10.70
2007,06,22,07,50,10.70
2007,06,22,07,51,10.70
2007,06,22,07,52,10.80
2007,06,22,07,53,10.80
2007,06,22,07,54,10.80
2007,06,22,07,55,10.80
2007,06,22,07,56,10.70
2007,06,22,07,57,10.70
2007,06,22,07,58,10.80
2007,06,22,07,59,10.80
2007,06,22,08,00,10.90
2007,06,22,08,01,10.90
2007,06,22,08,02,10.90
2007,06,22,08,03,11.00
2007,06,22,08,04,11.10
2007,06,22,08,05,11.10
2007,06,22,08,06,11.10
2007,06,22,08,07,11.20
2007,06,22,08,08,11.30
2007,06,22,08,09,11.30
2007,06,22,08,10,11.30
2007,06,22,08,11,11.30
2007,06,22,08,12,11.40
2007,06,22,08,13,11.40
2007,06,22,08,14,11.60
2007,06,22,08,15,11.60
2007,06,22,08,16,11.80
2007,06,22,08,17,11.90
2007,06,22,08,18,12.00
2007,06,22,08,19,12.10
2007,06,22,08,20,12.20
2007,06,22,08,21,12.20
2007,06,22,08,22,12.20
2007,06,22,08,23,12.30
2007,06,22,08,24,12.30
2007,06,22,08,25,12.30
2007,06,22,08,26,12.30
2007,06,22,08,27,12.40
2007,06,22,08,28,12.40
2007,06,22,08,29,12.40
2007,06,22,08,30,12.40
2007,06,22,08,31,12.40
2007,06,22,08,32,12.50
2007,06,22,08,33,12.60
2007,06,22,08,34,12.70
2007,06,22,08,35,12.70
2007,06,22,08,36,12.90
2007,06,22,08,37,13.00
2007,06,22,08,38,13.10
2007,06,22,08,39,13.10
2007,06,22,08,40,13.20
2007,06,22,08,41,13.30
2007,06,22,08,42,13.30
2007,06,22,08,43,13.20
2007,06,22,08,44,13.20
2007,06,22,08,45,13.20
2007,06,22,08,46,13.20
2007,06,22,08,47,13.20
2007,06,22,08,48,13.30
2007,06,22,08,49,13.30
2007,06,22,08,50,13.40
2007,06,22,08,51,13.50
2007,06,22,08,52,13.50
2007,06,22,08,53,13.60
2007,06,22,08,54,13.60
2007,06,22,08,55,13.70
2007,06,22,08,56,13.70
2007,06,22,08,57,13.80
2007,06,22,08,58,13.80
2007,06,22,08,59,13.80
2007,06,22,09,00,13.80
2007,06,22,09,01,13.90
2007,06,22,09,02,13.90
2007,06,22,09,03,14.00
2007,06,22,09,04,14.10
2007,06,22,09,05,14.10
2007,06,22,09,06,14.20
2007,06,22,09,07,14.30
2007,06,22,09,08,14.50
2007,06,22,09,09,14.60
2007,06,22,09,10,14.80
2007,06,22,09,11,14.80
2007,06,22,09,12,14.90
2007,06,22,09,13,14.90
2007,06,22,09,14,14.90
2007,06,22,09,15,14.80
2007,06,22,09,16,14.80
2007,06,22,09,17,14.80
2007,06,22,09,18,14.70
2007,06,22,09,19,14.70
2007,06,22,09,20,14.70
2007,06,22,09,21,14.70
2007,06,22,09,22,14.80
2007,06,22,09,23,14.80
2007,06,22,09,24,14.70
2007,06,22,09,25,14.60
2007,06,22,09,26,14.60
2007,06,22,09,27,14.50
2007,06,22,09,28,14.50
2007,06,22,09,29,14.50
2007,06,22,09,30,14.50
2007,06,22,09,31,14.60
2007,06,22,09,32,14.70
2007,06,22,09,33,14.70
2007,06,22,09,34,14.60
2007,06,22,09,35,14.60
2007,06,22,09,36,14.50
2007,06,22,09,37,14.60
2007,06,22,09,38,14.60
2007,06,22,09,39,14.60
2007,06,22,09,40,14.60
2007,06,22,09,41,14.60
2007,06,22,09,42,14.70
2007,06,22,09,43,14.70
2007,06,22,09,44,14.70
2007,06,22,09,45,14.70
2007,06,22,09,46,14.80
2007,06,22,09,47,14.90
2007,06,22,09,48,15.00
2007,06,22,09,49,15.00
2007,06,22,09,50,15.10
2007,06,22,09,51,15.20
2007,06,22,09,52,15.30
2007,06,22,09,53,15.30
2007,06,22,09,54,15.30
2007,06,22,09,55,15.20
2007,06,22,09,56,15.20
2007,06,22,09,57,15.10
2007,06,22,09,58,14.90
2007,06,22,09,59,15.00
2007,06,22,10,00,15.00
2007,06,22,10,01,15.00
2007,06,22,10,02,15.00
2007,06,22,10,03,14.90
2007,06,22,10,04,15.00
2007,06,22,10,05,15.10
2007,06,22,10,06,15.20
2007,06,22,10,07,15.20
2007,06,22,10,08,15.20
2007,06,22,10,09,15.30
2007,06,22,10,10,15.30
2007,06,22,10,11,15.30
2007,06,22,10,12,15.40
2007,06,22,10,13,15.50
2007,06,22,10,14,15.50
2007,06,22,10,15,15.50
2007,06,22,10,16,15.40
2007,06,22,10,17,15.30
2007,06,22,10,18,15.20
2007,06,22,10,19,15.10
2007,06,22,10,20,15.00
2007,06,22,10,21,15.00
2007,06,22,10,22,15.10
2007,06,22,10,23,15.10
2007,06,22,10,24,15.30
2007,06,22,10,25,15.30
2007,06,22,10,26,15.40
2007,06,22,10,27,15.60
2007,06,22,10,28,15.80
2007,06,22,10,29,15.90
2007,06,22,10,30,15.90
2007,06,22,10,31,15.90
2007,06,22,10,32,15.80
2007,06,22,10,33,15.70
2007,06,22,10,34,15.60
2007,06,22,10,35,15.50
2007,06,22,10,36,15.30
2007,06,22,10,37,15.40
2007,06,22,10,38,15.50
2007,06,22,10,39,15.60
2007,06,22,10,40,15.70
2007,06,22,10,41,15.80
2007,06,22,10,42,15.90
2007,06,22,10,43,15.90
2007,06,22,10,44,15.90
2007,06,22,10,45,15.90
2007,06,22,10,46,15.80
2007,06,22,10,47,15.80
2007,06,22,10,48,15.80
2007,06,22,10,49,15.80
2007,06,22,10,50,15.80
2007,06,22,10,51,15.60
2007,06,22,10,52,15.60
2007,06,22,10,53,15.60
2007,06,22,10,54,15.50
2007,06,22,10,55,15.50
2007,06,22,10,56,15.50
2007,06,22,10,57,15.40
2007,06,22,10,58,15.40
2007,06,22,10,59,15.50
2007,06,22,11,00,15.50
2007,06,22,11,01,15.50
2007,06,22,11,02,15.50
2007,06,22,11,03,15.60
2007,06,22,11,04,15.60
2007,06,22,11,05,15.50
2007,06,22,11,06,15.50
2007,06,22,11,07,15.40
2007,06,22,11,08,15.40
2007,06,22,11,09,15.40
2007,06,22,11,10,15.40
2007,06,22,11,11,15.40
2007,06,22,11,12,15.40
2007,06,22,11,13,15.40
2007,06,22,11,14,15.30
2007,06,22,11,15,15.30
2007,06,22,11,16,15.40
2007,06,22,11,17,15.40
2007,06,22,11,18,15.40
2007,06,22,11,19,15.40
2007,06,22,11,20,15.50
2007,06,22,11,21,15.50
2007,06,22,11,22,15.40
2007,06,22,11,23,15.40
2007,06,22,11,24,15.50
2007,06,22,11,25,15.50
2007,06,22,11,26,15.50
2007,06,22,11,27,15.50
2007,06,22,11,28,15.50
2007,06,22,11,29,15.50
2007,06,22,11,30,15.60
2007,06,22,11,31,15.60
2007,06,22,11,32,15.60
2007,06,22,11,33,15.60
2007,06,22,11,34,15.60
2007,06,22,11,35,15.70
2007,06,22,11,36,15.70
2007,06,22,11,37,15.70
2007,06,22,11,38,15.70
2007,06,22,11,39,15.70
2007,06,22,11,40,15.70
2007,06,22,11,41,15.60
2007,06,22,11,42,15.60
2007,06,22,11,43,15.60
2007,06,22,11,44,15.60
2007,06,22,11,45,15.60
2007,06,22,11,46,15.50
2007,06,22,11,47,15.50
2007,06,22,11,48,15.40
2007,06,22,11,49,15.30
2007,06,22,11,50,15.30
2007,06,22,11,51,15.20
2007,06,22,11,52,15.20
2007,06,22,11,53,15.10
2007,06,22,11,54,15.10
2007,06,22,11,55,15.10
2007,06,22,11,56,15.10
2007,06,22,11,57,15.00
2007,06,22,11,58,15.00
2007,06,22,11,59,15.00
2007,06,22,12,00,15.00
2007,06,22,12,01,15.00
2007,06,22,12,02,15.00
2007,06,22,12,03,14.90
2007,06,22,12,04,14.90
2007,06,22,12,05,14.90
2007,06,22,12,06,14.90
2007,06,22,12,07,14.90
2007,06,22,12,08,14.90
2007,06,22,12,09,14.90
2007,06,22,12,10,14.90
2007,06,22,12,11,15.00
2007,06,22,12,12,15.00
2007,06,22,12,13,15.00
2007,06,22,12,14,15.10
2007,06,22,12,15,15.10
2007,06,22,12,16,15.10
2007,06,22,12,17,15.10
2007,06,22,12,18,15.20
2007,06,22,12,19,15.30
2007,06,22,12,20,15.30
2007,06,22,12,21,15.40
2007,06,22,12,22,15.50
2007,06,22,12,23,15.50
2007,06,22,12,24,15.60
2007,06,22,12,25,15.70
2007,06,22,12,26,15.80
2007,06,22,12,27,15.80
2007,06,22,12,28,15.90
2007,06,22,12,29,16.10
2007,06,22,12,30,16.10
2007,06,22,12,31,16.10
2007,06,22,12,32,16.20
2007,06,22,12,33,16.30
2007,06,22,12,34,16.30
2007,06,22,12,35,16.40
2007,06,22,12,36,16.40
2007,06,22,12,37,16.50
2007,06,22,12,38,16.70
2007,06,22,12,39,16.70
2007,06,22,12,40,16.70
2007,06,22,12,41,16.70
2007,06,22,12,42,16.70
2007,06,22,12,43,16.70
2007,06,22,12,44,16.70
2007,06,22,12,45,16.50
2007,06,22,12,46,16.40
2007,06,22,12,47,16.30
2007,06,22,12,48,16.20
2007,06,22,12,49,16.10
2007,06,22,12,50,16.20
2007,06,22,12,51,16.20
2007,06,22,12,52,16.30
2007,06,22,12,53,16.30
2007,06,22,12,54,16.20
2007,06,22,12,55,16.20
2007,06,22,12,56,16.10
2007,06,22,12,57,16.20
2007,06,22,12,58,16.20
2007,06,22,12,59,16.20
2007,06,22,13,00,16.30
2007,06,22,13,01,16.30
2007,06,22,13,02,16.50
2007,06,22,13,03,16.70
2007,06,22,13,04,16.60
2007,06,22,13,05,16.70
2007,06,22,13,06,16.70
2007,06,22,13,07,16.60
2007,06,22,13,08,16.50
2007,06,22,13,09,16.40
2007,06,22,13,10,16.30
2007,06,22,13,11,16.30
2007,06,22,13,12,16.20
2007,06,22,13,13,16.20
2007,06,22,13,14,16.10
2007,06,22,13,15,16.10
2007,06,22,13,16,16.10
2007,06,22,13,17,16.10
2007,06,22,13,18,15.90
2007,06,22,13,19,15.90
2007,06,22,13,20,15.80
2007,06,22,13,21,15.80
2007,06,22,13,22,15.70
2007,06,22,13,23,15.70
2007,06,22,13,24,15.60
2007,06,22,13,25,15.60
2007,06,22,13,26,15.50
2007,06,22,13,27,15.50
2007,06,22,13,28,15.40
2007,06,22,13,29,15.40
2007,06,22,13,30,15.30
2007,06,22,13,31,15.40
2007,06,22,13,32,15.40
2007,06,22,13,33,15.40
2007,06,22,13,34,15.50
2007,06,22,13,35,15.50
2007,06,22,13,36,15.50
2007,06,22,13,37,15.50
2007,06,22,13,38,15.50
2007,06,22,13,39,15.60
2007,06,22,13,40,15.70
2007,06,22,13,41,15.80
2007,06,22,13,42,15.80
2007,06,22,13,43,15.80
2007,06,22,13,44,15.80
2007,06,22,13,45,15.80
2007,06,22,13,46,15.80
2007,06,22,13,47,15.80
2007,06,22,13,48,15.80
2007,06,22,13,49,15.80
2007,06,22,13,50,15.70
2007,06,22,13,51,15.60
2007,06,22,13,52,15.60
2007,06,22,13,53,15.50
2007,06,22,13,54,15.40
2007,06,22,13,55,15.30
2007,06,22,13,56,15.20
2007,06,22,13,57,15.10
2007,06,22,13,58,15.10
2007,06,22,13,59,15.00
2007,06,22,14,00,14.90
2007,06,22,14,01,14.90
2007,06,22,14,02,14.90
2007,06,22,14,03,14.90
2007,06,22,14,04,14.90
2007,06,22,14,05,15.00
2007,06,22,14,06,15.10
2007,06,22,14,07,15.30
2007,06,22,14,08,15.40
2007,06,22,14,09,15.50
2007,06,22,14,10,15.60
2007,06,22,14,11,15.80
2007,06,22,14,12,15.80
2007,06,22,14,13,15.80
2007,06,22,14,14,15.80
2007,06,22,14,15,15.80
2007,06,22,14,16,15.80
2007,06,22,14,17,15.90
2007,06,22,14,18,16.00
2007,06,22,14,19,16.10
2007,06,22,14,20,16.20
2007,06,22,14,21,16.40
2007,06,22,14,22,16.40
2007,06,22,14,23,16.40
2007,06,22,14,24,16.40
2007,06,22,14,25,16.40
2007,06,22,14,26,16.40
2007,06,22,14,27,16.40
2007,06,22,14,28,16.50
2007,06,22,14,29,16.70
2007,06,22,14,30,16.70
2007,06,22,14,31,16.70
2007,06,22,14,32,16.80
2007,06,22,14,33,16.80
2007,06,22,14,34,16.80
2007,06,22,14,35,16.80
2007,06,22,14,36,16.60
2007,06,22,14,37,16.50
2007,06,22,14,38,16.40
2007,06,22,14,39,16.30
2007,06,22,14,40,16.20
2007,06,22,14,41,16.10
2007,06,22,14,42,16.00
2007,06,22,14,43,16.00
2007,06,22,14,44,15.90
2007,06,22,14,45,15.90
2007,06,22,14,46,15.90
2007,06,22,14,47,15.90
2007,06,22,14,48,15.80
2007,06,22,14,49,15.80
2007,06,22,14,50,15.80
2007,06,22,14,51,15.70
2007,06,22,14,52,15.60
2007,06,22,14,53,15.60
2007,06,22,14,54,15.60
2007,06,22,14,55,15.40
2007,06,22,14,56,15.40
2007,06,22,14,57,15.30
2007,06,22,14,58,15.30
2007,06,22,14,59,15.20
2007,06,22,15,00,15.20
2007,06,22,15,01,15.20
2007,06,22,15,02,15.20
2007,06,22,15,03,15.20
2007,06,22,15,04,15.20
2007,06,22,15,05,15.20
2007,06,22,15,06,15.20
2007,06,22,15,07,15.20
2007,06,22,15,08,15.20
2007,06,22,15,09,15.20
2007,06,22,15,10,15.20
2007,06,22,15,11,15.10
2007,06,22,15,12,15.10
2007,06,22,15,13,15.10
2007,06,22,15,14,15.10
2007,06,22,15,15,15.20
2007,06,22,15,16,15.20
2007,06,22,15,17,15.30
2007,06,22,15,18,15.30
2007,06,22,15,19,15.30
2007,06,22,15,20,15.30
2007,06,22,15,21,15.30
2007,06,22,15,22,15.30
2007,06,22,15,23,15.30
2007,06,22,15,24,15.40
2007,06,22,15,25,15.50
2007,06,22,15,26,15.60
2007,06,22,15,27,15.70
2007,06,22,15,28,15.60
2007,06,22,15,29,15.60
2007,06,22,15,30,15.60
2007,06,22,15,31,15.50
2007,06,22,15,32,15.50
2007,06,22,15,33,15.50
2007,06,22,15,34,15.50
2007,06,22,15,35,15.50
2007,06,22,15,36,15.50
2007,06,22,15,37,15.60
2007,06,22,15,38,15.60
2007,06,22,15,39,15.50
2007,06,22,15,40,15.50
2007,06,22,15,41,15.50
2007,06,22,15,42,15.50
2007,06,22,15,43,15.60
2007,06,22,15,44,15.70
2007,06,22,15,45,15.80
2007,06,22,15,46,15.80
2007,06,22,15,47,15.80
2007,06,22,15,48,15.80
2007,06,22,15,49,15.80
2007,06,22,15,50,15.80
2007,06,22,15,51,15.80
2007,06,22,15,52,15.80
2007,06,22,15,53,15.80
2007,06,22,15,54,15.80
2007,06,22,15,55,15.70
2007,06,22,15,56,15.70
2007,06,22,15,57,15.70
2007,06,22,15,58,15.70
2007,06,22,15,59,15.70
2007,06,22,16,00,15.70
2007,06,22,16,01,15.60
2007,06,22,16,02,15.60
2007,06,22,16,03,15.60
2007,06,22,16,04,15.60
2007,06,22,16,05,15.60
2007,06,22,16,06,15.60
2007,06,22,16,07,15.60
2007,06,22,16,08,15.60
2007,06,22,16,09,15.50
2007,06,22,16,10,15.50
2007,06,22,16,11,15.50
2007,06,22,16,12,15.50
2007,06,22,16,13,15.40
2007,06,22,16,14,15.50
2007,06,22,16,15,15.50
2007,06,22,16,16,15.50
2007,06,22,16,17,15.60
2007,06,22,16,18,15.70
2007,06,22,16,19,15.80
2007,06,22,16,20,15.80
2007,06,22,16,21,15.80
2007,06,22,16,22,15.80
2007,06,22,16,23,15.70
2007,06,22,16,24,15.60
2007,06,22,16,25,15.60
2007,06,22,16,26,15.50
2007,06,22,16,27,15.50
2007,06,22,16,28,15.40
2007,06,22,16,29,15.40
2007,06,22,16,30,15.40
2007,06,22,16,31,15.50
2007,06,22,16,32,15.50
2007,06,22,16,33,15.50
2007,06,22,16,34,15.50
2007,06,22,16,35,15.40
2007,06,22,16,36,15.40
2007,06,22,16,37,15.40
2007,06,22,16,38,15.50
2007,06,22,16,39,15.50
2007,06,22,16,40,15.50
2007,06,22,16,41,15.50
2007,06,22,16,42,15.50
2007,06,22,16,43,15.50
2007,06,22,16,44,15.40
2007,06,22,16,45,15.40
2007,06,22,16,46,15.40
2007,06,22,16,47,15.40
2007,06,22,16,48,15.40
2007,06,22,16,49,15.40
2007,06,22,16,50,15.40
2007,06,22,16,51,15.40
2007,06,22,16,52,15.40
2007,06,22,16,53,15.40
2007,06,22,16,54,15.40
2007,06,22,16,55,15.40
2007,06,22,16,56,15.40
2007,06,22,16,57,15.50
2007,06,22,16,58,15.40
2007,06,22,16,59,15.40
2007,06,22,17,00,15.40
2007,06,22,17,01,15.50
2007,06,22,17,02,15.50
2007,06,22,17,03,15.50
2007,06,22,17,04,15.50
2007,06,22,17,05,15.60
2007,06,22,17,06,15.60
2007,06,22,17,07,15.50
2007,06,22,17,08,15.60
2007,06,22,17,09,15.60
2007,06,22,17,10,15.60
2007,06,22,17,11,15.60
2007,06,22,17,12,15.60
2007,06,22,17,13,15.60
2007,06,22,17,14,15.70
2007,06,22,17,15,15.70
2007,06,22,17,16,15.70
2007,06,22,17,17,15.70
2007,06,22,17,18,15.70
2007,06,22,17,19,15.70
2007,06,22,17,20,15.80
2007,06,22,17,21,15.80
2007,06,22,17,22,15.80
2007,06,22,17,23,15.80
2007,06,22,17,24,15.80
2007,06,22,17,25,15.80
2007,06,22,17,26,15.80
2007,06,22,17,27,15.80